Weather Roundup
Issued by NWS

Home | Current Version | Previous Version | Text Only | Print | Product List | Glossary On
Versions: 1 2 3 4 5 6 7 8 9 10 11 12 13 14 15 16 17 18 19 20 21 22 23 24 25 26 27 28 29 30 31 32 33 34 35 36 37 38 39 40 41 42 43 44 45 46 47 48 49 50
000
NZUS93 KARX 221159
HRRWXR

CURRENT HOURLY OBSERVATIONS ACROSS
MUCH OF THE UPPER MISSISSIPPI VALLEY
NATIONAL WEATHER SERVICE LA CROSSE WI
700 AM CDT TUE JUL 22 2014


...SOUTHEAST MINNESOTA...


CITY           SKY/WX    TMP DP  RH WIND       PRES   REMARKS
ROCHESTER      CLOUDY    77  73  87 SW9       29.91R FOG
ROCHESTER/MAYO CLOUDY    76  73  88 SW8       29.90R
WINONA         PTSUNNY   77  70  78 SW8G16    29.88R
AUSTIN         CLOUDY    77  75  94 S7        29.90S FOG
ALBERT LEA     PTSUNNY   79  75  89 W5        29.90S FOG
DODGE CENTER   PTSUNNY   75  73  94 SW8       29.90S FOG
PRESTON        MOSUNNY   74  74 100 SW12      29.93R
OWATONNA       MOSUNNY   79  75  89 W8        29.90R FOG
FARIBAULT      MOSUNNY   81  68  65 NW8       29.90R
$$

...ELSEWHERE IN MINNESOTA...


CITY           SKY/WX    TMP DP  RH WIND       PRES   REMARKS
MINNEAPOLIS    MOSUNNY   75  63  66 NW15G26   29.89R
INTNL FALLS    CLOUDY    65  63  93 NW13      29.83R
DULUTH         CLOUDY    68  64  87 W16G24    29.79R
RED WING       CLOUDY    81  75  83 W7        29.86R
REDWOOD FALLS  CLOUDY    69  65  86 NW18G25   30.02R
MANKATO        MOSUNNY   73  63  68 NW18G24   29.95R
WORTHINGTON    PTCLDY    68  63  83 N12       30.03F
FAIRMONT       CLEAR     72  63  73 NW16G22   29.99R
$$

...SOUTHWEST WISCONSIN...


CITY           SKY/WX    TMP DP  RH WIND       PRES   REMARKS
LA CROSSE      SUNNY     78  69  73 S7        29.87R
PRAIRIE DU CHI MOSUNNY   77  66  68 S6        29.90F
BOSCOBEL       MOSUNNY   77  67  71 S7        29.91F
LONE ROCK      NOT AVBL
PLATTEVILLE    PTSUNNY   73  68  85 S9        29.97R
FORT MC COY    SUNNY     75  67  74 SW5       29.89S
VIROQUA        FAIR      74  68  81 S15       29.91F
WIS DELLS      PTSUNNY   74  66  76 S13       29.92R
$$

...ELSEWHERE IN WISCONSIN...


CITY           SKY/WX    TMP DP  RH WIND       PRES   REMARKS
MILWAUKEE      MOSUNNY   72  65  78 S14       29.99F
MADISON        PTSUNNY   75  66  73 S10       29.95F
GREEN BAY      PTSUNNY   75  68  78 S13       29.91S HAZE
EAU CLAIRE     NOT AVBL
BLACK RVR FLS  FAIR      76  69  78 S7        29.86R
MEDFORD        CLOUDY    72  69  89 S12       29.87S
WAUSAU         PTSUNNY   74  69  85 S12       29.86F
WIS RAPIDS     PTSUNNY   76  68  76 S12       29.89F
MARSHFIELD     PTSUNNY   74  69  85 S12       29.87F
RICE LAKE      MOSUNNY   77  72  84 SW9       29.83R
$$

...NORTHEAST IOWA...


CITY           SKY/WX    TMP DP  RH WIND       PRES   REMARKS
WATERLOO       SUNNY     77  72  84 S13       29.89S
DUBUQUE        MOSUNNY   71  68  90 S14       29.95F
DECORAH        SUNNY     75  70  83 S5G14     29.90S
MASON CITY     SUNNY     76  74  93 SW7       29.93R FOG
CHARLES CITY   SUNNY     75  73  94 S9        29.90S FOG
OELWEIN        SUNNY     73  72  94 S10       29.93S
$$

...ELSEWHERE IN IOWA...


CITY           SKY/WX    TMP DP  RH WIND       PRES   REMARKS
DES MOINES     LGT RAIN  80  74  81 S9        29.93R
IOWA CITY      MOSUNNY   74  69  85 S9        29.96F
FORT DODGE     CLEAR     75  72  88 CALM      29.93R
MARSHALLTOWN   MOSUNNY   79  74  84 S12       29.92R
CEDAR RAPIDS   PTSUNNY   74  68  81 S9        29.94S
$$

...NORTHERN ILLINOIS...


CITY           SKY/WX    TMP DP  RH WIND       PRES   REMARKS
CHICAGO-OHARE  MOSUNNY   73  62  68 S9        30.05F
DUPAGE         SUNNY     70  64  81 S12       30.04F
CHICAGO-MIDWAY MOSUNNY   73  65  75 S9        30.07R
MOLINE         SUNNY     74  67  78 S8        29.98F
ROCKFORD       MOSUNNY   71  65  81 S10       30.02F
STERLING       SUNNY     72  66  83 S3        30.01F
PEORIA         SUNNY     71  65  81 S6        30.06S
$$

NOTE: "FAIR" INDICATES FEW OR NO CLOUDS BELOW 12,000 FEET WITH NO
SIGNIFICANT WEATHER AND/OR OBSTRUCTIONS TO VISIBILITY. WIND
SPEEDS ARE IN MILES-PER-HOUR.



USA.gov is the U.S. government's official web portal to all federal, state and local government web resources and services.